Location: Caltech
(34.1382°N, 118.1253°W)
Time: 19:53:54
(UTC-07:00)

AO-27 - Visible Passes

Search period start: 25 June 2016 00:00
Search period end: 05 July 2016 00:00
Orbit: 786 x 797 km, 98.8° (Epoch: 24 June)

Date Brightness Start Highest point End Pass type
(mag) Time Alt. Az. Time Alt. Az. Time Alt. Az.
25 Jun 8.2 03:28:34 10° NNE 03:33:43 55° E 03:36:24 27° SSE visible
25 Jun 9.5 05:09:37 10° NNW 05:12:42 16° WNW 05:15:46 10° W visible
26 Jun 9.3 03:00:10 10° NE 03:04:36 28° E 03:07:02 20° SE visible
26 Jun 8.7 04:39:30 10° N 04:43:59 30° WNW 04:47:47 13° SW visible
27 Jun 10.0 02:32:45 10° ENE 02:35:23 14° E 02:37:38 11° ESE visible
27 Jun 7.8 04:10:02 10° N 04:15:10 57° WNW 04:18:24 22° SW visible
28 Jun 7.8 03:40:59 10° NNE 03:46:14 73° ESE 03:49:01 28° S visible
29 Jun 8.8 03:12:20 10° NNE 03:17:10 37° E 03:19:37 24° SSE visible
29 Jun 9.0 04:52:21 10° NNW 04:56:23 23° WNW 05:00:23 10° WSW visible
30 Jun 9.7 02:44:22 10° NE 02:47:59 19° E 02:50:14 15° SE visible
30 Jun 8.2 04:22:40 10° N 04:27:36 43° WNW 04:30:59 19° SW visible
01 Jul 7.6 03:53:27 10° NNE 03:58:43 85° WNW 04:01:36 28° SSW visible
02 Jul 8.3 03:24:38 10° NNE 03:29:42 49° E 03:32:12 27° SSE visible
02 Jul 9.4 05:05:22 10° NNW 05:08:45 18° WNW 05:12:07 10° WSW visible
03 Jul 9.4 02:56:19 10° NE 03:00:35 25° E 03:02:48 19° SE visible
03 Jul 8.6 04:35:24 10° N 04:40:02 33° WNW 04:43:34 16° SW visible
04 Jul 10.1 02:29:15 10° ENE 02:31:20 12° E 02:33:24 10° ESE visible
04 Jul 7.7 04:06:00 10° N 04:11:11 64° WNW 04:14:10 25° SSW visible
